Location: Ballard
(38.3614°N, 94.1431°W)
Time: 15:10:54
(UTC-05:00)

Hubble Space Telescope - Pass Details

Date: 25 March 2019
Orbit: 537 x 540 km, 28.5° (Epoch: 20 April)

Event Time Altitude Azimuth Distance (km) Brightness Sun altitude
Rises 21:25:08 0° 236° (SW) 2,673 4.8 -22.2°
Reaches altitude 10° 21:27:53 10° 218° (SW) 1,783 3.6 -22.7°
Enters shadow 21:29:13 15° 201° (SSW) 1,474 3.0 -22.9°
